Preview of NWS' New Version of Forecast
This preview is not operational and should not be used for support decisions.
Latest weather observations around

Santa Ana, John Wayne Airport-Orange County Airport (KSNA)

Using English Units (Switch to International System of Units)
Date/ Time (PDT) Wind (mph) Vis. (mi) Weather Sky Cond. Temp (°F) Rel. Humidity Wind Chill (°F) Heat Index (°F) Pressure Precip. (in)
Air Dwpt 6 hour Altimeter (inHg) Sea level (inHg) 1 hr 3 hr 6 hr
Max Min
Apr 22 23:53 Calm 7 Clear CLR 60 57     90%     29.96 29.96      
Apr 22 22:53 SW 3 6 Fog/Mist FEW007 60 57     90%     29.96 29.96      
Apr 22 22:04 SW 6 7 Partly Cloudy FEW007 SCT011 61 58     90%     29.97        
Apr 22 21:53 SW 6 9 Mostly Clear FEW011 61 56     83%     29.97 29.96      
Apr 22 19:53 SW 6 9 Mostly Clear FEW250 63 55     75%     29.92 29.92      
Apr 22 18:53 SSW 8 10 Mostly Clear FEW250 67 51     57%     29.9 29.89      
Apr 22 17:53 SW 9 10 Clear CLR 72 47     41%   71 29.9 29.9      
Apr 22 16:53 SW 5 10 Clear CLR 73 51     46%   72 29.89 29.89      
Apr 22 15:53 W 8 10 Mostly Clear FEW250 74 50     43%   73 29.9 29.89      
Apr 22 14:53 SSW 8 10 Mostly Clear FEW250 77 47     35%   76 29.9 29.9      
Apr 22 13:53 SW 10 10 Mostly Clear FEW250 77 45     32%   76 29.92 29.91      
Apr 22 12:53 SSW 13 10 Mostly Clear FEW250 74 49     41%   73 29.93 29.92      
Apr 22 11:53 SSW 13 10 Mostly Clear FEW250 70 52     53%     29.94 29.93      
Apr 22 10:53 SSW 10 10 Mostly Clear FEW250 70 54     57%     29.95 29.94      
Apr 22 09:53 SW 6 10 Mostly Clear FEW250 68 51     55%     29.94 29.94      
Apr 22 08:53 S 3 10 Clear CLR 66 51     59%     29.95 29.95      
Apr 22 07:53 Calm 10 Mostly Clear FEW250 61 52     72%     29.95 29.95      
Apr 22 06:53 Calm 10 Clear CLR 57 51     81%     29.94 29.93      
Apr 22 05:53 Calm 10 Clear CLR 58 51     78%     29.93 29.93      
Apr 22 04:53 Calm 10 Clear CLR 57 51     81%     29.93 29.93      
Apr 22 03:53 Calm 10 Clear CLR 59 53     81%     29.94 29.93      
Apr 22 02:53 Calm 10 Clear CLR 59 53     81%     29.95 29.95      
Apr 22 00:53 Calm 10 Clear CLR 61 54     78%     29.97 29.96      
Apr 21 23:53 Calm 10 Clear CLR 61 54     78%     29.97 29.97      
Apr 21 22:53 SSW 5 10 Mostly Cloudy BKN250 60 55     83%     29.98 29.98      
Apr 21 21:53 SSW 7 10 Mostly Cloudy BKN250 60 55     83%     29.99 29.98      
Apr 21 20:53 SSW 13 10 Mostly Cloudy BKN250 61 55     81%     29.97 29.97      
Apr 21 19:53 S 7 10 Mostly Cloudy BKN210 BKN250 64 53     67%     29.95 29.95      
Apr 21 18:53 S 9 10 Mostly Cloudy SCT210 BKN250 66 52     61%     29.95 29.95      
Apr 21 17:53 SSW 7 10 Mostly Cloudy BKN250 74 49     41%   73 29.95 29.94      
Apr 21 16:53 SW 7 10 Mostly Cloudy BKN250 73 48     41%   72 29.95 29.95      
Apr 21 15:53 SW 9 10 Mostly Cloudy FEW210 BKN250 73 50     44%   72 29.96 29.96      
Apr 21 14:53 SSW 8 10 Mostly Cloudy FEW210 BKN250 76 48     37%   75 29.97 29.97      
Apr 21 13:53 SW 8 10 Partly Cloudy SCT250 76 48     37%   75 29.99 29.99      
Apr 21 12:53 7 10 Mostly Clear FEW250 79 51     38%   78 30.01 30      
Apr 21 11:53 SSW 9 10 Mostly Clear FEW250 78 49     36%   77 30.02 30.01      
Apr 21 10:53 3 10 Mostly Clear FEW250 74 43     33%   73 30.04 30.03      
Apr 21 09:53 Calm 10 Mostly Clear FEW250 68 47     47%     30.05 30.05      
Apr 21 08:53 N 3 10 Mostly Clear FEW250 62 48     60%     30.06 30.06      
Apr 21 07:53 NNE 5 10 Clear CLR 59 49     69%     30.07 30.07      
Apr 21 06:53 Calm 10 Clear CLR 56 49     77%     30.06 30.05      
Apr 21 05:53 Calm 10 Clear CLR 54 48     80%     30.05 30.04      
Apr 21 04:53 Calm 7 Clear CLR 55 53     93%     30.05 30.04      
Apr 21 03:53 Calm 8 Clear CLR 56 52     87%     30.05 30.05      
Apr 21 02:53 Calm 10 Clear CLR 57 49     74%     30.05 30.05      
Apr 21 01:53 E 3 8 Clear CLR 56 53     90%     30.06 30.06      
Apr 21 00:53 SW 5 10 Clear CLR 58 51     78%     30.09 30.09      
Apr 20 23:53 S 3 10 Clear CLR 59 52     78%     30.1 30.1      
Apr 20 22:53 NE 3 10 Clear CLR 59 52     78%     30.1 30.09      
Apr 20 21:53 NW 3 9 Clear CLR 59 52     78%     30.1 30.1      
Apr 20 20:53 SW 6 10 Clear CLR 59 52     78%     30.1 30.1      
Apr 20 19:53 SW 6 10 Clear CLR 61 50     67%     30.09 30.09      
Apr 20 18:53 WSW 3 10 Clear CLR 65 47     52%     30.06 30.06      
Apr 20 17:53 3 10 Clear CLR 66 44     45%     30.06 30.06      
Apr 20 16:53 7 10 Clear CLR 66 48     52%     30.06 30.06      
Apr 20 15:53 SW 10 10 Clear CLR 68 47     47%     30.06 30.06      
Apr 20 14:53 WSW 10 10 Mostly Clear FEW025 69 48     47%     30.05 30.05      
Apr 20 13:53 W 8 10 Clear CLR 71 49     45%   70 30.04 30.04      
Apr 20 12:53 NNW 10 10 Clear CLR 71 43     36%   70 30.06 30.06      
Apr 20 11:53 5 10 Clear CLR 67 44     44%     30.1 30.09      
Apr 20 10:53 3 10 Clear CLR 63 46     54%     30.11 30.11      
Apr 20 09:53 5 10 Partly Cloudy SCT027 61 48     62%     30.13 30.13      
Apr 20 08:53 5 10 Mostly Clear FEW032 FEW035 59 47     64%     30.13 30.13      
Apr 20 08:22 6 10 Partly Cloudy FEW030 SCT036 58 47     67%     30.13        
Apr 20 07:53 E 7 10 Mostly Cloudy BKN028 56 46     69%     30.14 30.14      
Apr 20 07:25 7 10 Mostly Cloudy BKN028 BKN035 56 46     69%     30.13        
Apr 20 06:53 E 6 10 Mostly Clear FEW035 FEW044 54 45     72%     30.13 30.12      
Apr 20 05:53 E 7 10 Clear CLR 53 45     74%     30.11 30.1      
Apr 20 04:53 ESE 6 10 Clear CLR 53 46     77%     30.1 30.1      
Apr 20 03:53 ESE 8 10 Clear CLR 53 46     77%     30.1 30.09      
Apr 20 03:09 ESE 7 10 Partly Cloudy SCT021 54 46     74%     30.09        
Apr 20 02:53 SE 9 10 Mostly Cloudy BKN021 54 46     74%     30.09 30.09      
Apr 20 01:53 SE 7 10 Cloudy OVC020 55 49     80%     30.08 30.08      
Apr 20 00:53 ESE 7 10 Cloudy OVC022 55 50     83%     30.07 30.07      
Apr 20 00:06 S 8 10 Mostly Cloudy BKN019 56 50     80%     30.05        
Apr 19 23:53 S 8 10 Mostly Clear FEW019 56 50     80%     30.05 30.05      
Jun 11 23:53 W 7 10 Cloudy OVC037 63 53     70%     29.99 29.98      
Jun 11 19:53 S 8 10 Partly Cloudy FEW023 SCT028 SCT035 64 54     70%     29.93 29.93      
Jun 11 14:53 SSW 18 10 Partly Cloudy FEW033 SCT038 71 53     53%   70 29.92 29.91      
Jun 11 12:53 SSE 10 10 Mostly Cloudy SCT028 BKN036 69 53     57%     29.92 29.92      
Jun 11 07:53 ESE 8 10 Cloudy BKN022 BKN030 OVC035 62 56     80%     29.89 29.89      
Jun 08 14:53 W 9 9 Mostly Clear FEW027 FEW250 72 58     61%   72 29.98 29.97      
Jun 07 22:53 3 7 Cloudy FEW013 OVC015 63 57     81%     29.98 29.98      
Jun 07 19:53 SSW 9 8 Cloudy SCT013 OVC016 63 57     81%     29.96 29.96      
Jun 07 08:59 SW 5 4 Fog/Mist SCT007 BKN010 OVC014 62 60     93%     29.95        
Jun 06 12:53 SW 7 10 Cloudy OVC013 66 59     78%     29.95 29.95      
Jun 06 00:53 S 5 10 Cloudy OVC012 63 58     84%     29.9 29.89